Погода в Петриково

Россия / Республика Марий Эл     56°44′18″N   48°13′22″E
темп.,
°C
ветер,
м/с
пор.,
м/с
влажн.,
%
обл.,
%
осадки,
мм/ч
давл.,
гПа
погр.,
м
28 сентября, вт
вт2800:00+2всв410865 0.0 1025354
03:00+1св411893 0.0 1026259
06:00−1св410935 0.0 1028211
09:00+5св586924 0.0 1028537
12:00+8св675295 0.0 10291116
15:00+9св56485 0.0 10291272
18:00+4ссв366918 0.0 103093
21:00+3ссв357599 0.0 103191
29 сентября, ср
ср2900:00+2ссв347869 0.0 103158
03:00+1с34838 0.0 103250
06:000ссв338950 0.0 103233
09:00+5ссв3465100 0.0 1032345
12:00+8ссв345098 0.0 10311005
15:00+9с455473 0.0 10301175
18:00+5с337388 0.0 103135
21:00+6ссз2575100 0.0 1031150
30 сентября, чт
чт3000:00+5с2291100 0.0 103147
03:00+6сз249075 0.2 1030109
06:00+5сз2492100 0.0 1031116
09:00+8сз357794 0.0 1031486
12:00+9ссз4573100 0.1 1030939
15:00+7зсз3787100 0.1 1030346
18:00+6з369399 0.0 1029177
21:00+8з3788100 0.0 1028205
1 октября, пт
пт100:00+6сз34965 0.0 102959
03:00+5сз33945 0.0 102942
06:00+4ссз349533 0.0 103065
09:00+9ссз3577100 0.0 1030358
12:00+12сз456488 0.0 1030810
15:00+13ссз4557100 0.0 10301022
18:00+9с227815 0.0 103020
21:00+7с228761 0.0 103111
2 октября, сб
сб200:00+6ссз118993 0.0 103110
03:00+6сз1190100 0.0 103210
06:00+5зсз1192100 0.0 103210
09:00+10сз227477 0.0 1032274
12:00+11зсз2373100 0.0 1032298
15:00+11зсз237486 0.0 1032354
18:00+8зюз228913 0.0 103311
21:00+9зюз2286100 0.0 103342